User: anonymous   Login
Location: Corcelles
(46.1547°N, 4.7234°E)
Time: 00:14:38
(UTC+00:00)
Language:

Cosmos 1241 Rocket - Orbit

View from above orbital plane
View from above orbital plane
View from above satellite
View from above satellite

Ground track
Ground track

The orbit data is extracted from the following two-line orbital elements,

1 12150U 81006B   20273.45309204 -.00000027 +00000-0 +53694-4 0  9996
2 12150 065.8230 335.0492 0056892 327.4101 032.3456 13.77139799994314
Epoch (UTC): 29 September 2020 10:52:27
Eccentricity: 0.0056892
inclination: 65.8230°
perigee height: 932 km
apogee height: 1016 km
right ascension of ascending node: 335.0492°
argument of perigee: 327.4101°
revolutions per day: 13.77139799
mean anomaly at epoch: 32.3456°
orbit number at epoch: 99431

The dashed part of the orbit path shows where the satellite is in the earth's shadow,  

DLR